THY617 LTFM-LTAY

Flight info

Callsign THY617
Flight time 0h 42m
Altitude 31000
Route RATVU UT35 TEKDO UW78 RESLI
Aircraft A320/M-SDE3FGHIRWY/LB1

Departure

Time 2026-04-16 03:52
Airport İstanbul Airport (LTFM)

Arrival

Time 2026-04-16 04:34
Airport Çardak Airport (LTAY)
Time Latitude Longitude Altitude Speed Heading
2026-04-16 03:37 41.26345 28.74909 314 ft 0 kts 287°
2026-04-16 03:46 41.26343 28.74918 313 ft 2 kts 287°
2026-04-16 03:46 41.26337 28.74940 313 ft 2 kts 287°
2026-04-16 03:46 41.26332 28.74962 313 ft 3 kts 276°
2026-04-16 03:47 41.26332 28.74985 313 ft 3 kts 253°
2026-04-16 03:47 41.26339 28.75006 312 ft 3 kts 224°
2026-04-16 03:47 41.26352 28.75020 312 ft 2 kts 206°
2026-04-16 03:47 41.26365 28.75030 312 ft 2 kts 206°
2026-04-16 03:48 41.26371 28.75034 312 ft 0 kts 198°
2026-04-16 03:49 41.26370 28.75033 312 ft 1 kts 198°
2026-04-16 03:49 41.26339 28.75022 313 ft 7 kts 193°
2026-04-16 03:49 41.26285 28.75001 313 ft 9 kts 197°
2026-04-16 03:49 41.26240 28.75049 313 ft 10 kts 92°
2026-04-16 03:50 41.26240 28.75156 314 ft 13 kts 90°
2026-04-16 03:50 41.26241 28.75285 314 ft 15 kts 89°
2026-04-16 03:50 41.26243 28.75434 315 ft 17 kts 89°
2026-04-16 03:50 41.26245 28.75588 321 ft 15 kts 90°
2026-04-16 03:51 41.26284 28.75670 325 ft 11 kts
2026-04-16 03:51 41.26299 28.75668 325 ft 1 kts 358°
2026-04-16 03:51 41.26306 28.75668 325 ft 3 kts 358°
2026-04-16 03:51 41.26541 28.75663 322 ft 67 kts 359°
2026-04-16 03:52 41.27201 28.75652 319 ft 123 kts 359°
2026-04-16 03:52 41.28157 28.75635 479 ft 148 kts
2026-04-16 03:52 41.29170 28.75610 1151 ft 144 kts
2026-04-16 03:52 41.30091 28.76019 1740 ft 141 kts 46°
2026-04-16 03:53 41.30546 28.76674 2128 ft 146 kts 44°
2026-04-16 03:53 41.31434 28.77512 2392 ft 168 kts 32°
2026-04-16 03:53 41.32910 28.78605 2741 ft 199 kts 30°
2026-04-16 03:53 41.34186 28.79524 3095 ft 219 kts 30°
2026-04-16 03:54 41.35103 28.80193 3333 ft 236 kts 30°
2026-04-16 03:54 41.36597 28.81296 3902 ft 252 kts 30°
2026-04-16 03:54 41.37928 28.82833 4682 ft 260 kts 58°
2026-04-16 03:54 41.38439 28.85156 5463 ft 269 kts 85°
2026-04-16 03:55 41.38513 28.87669 6310 ft 274 kts 88°
2026-04-16 03:55 41.38415 28.90231 7079 ft 282 kts 102°
2026-04-16 03:55 41.37542 28.92594 7825 ft 289 kts 130°
2026-04-16 03:55 41.35949 28.94226 8596 ft 293 kts 158°
2026-04-16 03:56 41.33963 28.94772 9394 ft 294 kts 180°
2026-04-16 03:56 41.31908 28.94810 10188 ft 298 kts 182°
2026-04-16 03:56 41.29760 28.94829 10485 ft 320 kts 182°
2026-04-16 03:56 41.27455 28.94845 10670 ft 343 kts 181°
2026-04-16 03:57 41.25021 28.94861 11113 ft 354 kts 182°
2026-04-16 03:57 41.22543 28.94753 11766 ft 358 kts 185°
2026-04-16 03:57 41.20055 28.94538 12488 ft 360 kts 186°
2026-04-16 03:57 41.17547 28.94266 13208 ft 363 kts 187°
2026-04-16 03:58 41.15016 28.93977 13922 ft 365 kts 187°
2026-04-16 03:58 41.12473 28.93697 14530 ft 368 kts 187°
2026-04-16 03:58 41.09906 28.93434 15127 ft 372 kts 187°
2026-04-16 03:58 41.07314 28.93185 15700 ft 375 kts 187°
2026-04-16 03:59 41.04699 28.92944 16276 ft 378 kts 187°
2026-04-16 03:59 41.02100 28.92706 16853 ft 382 kts 187°
2026-04-16 03:59 40.99440 28.92433 17442 ft 385 kts 188°
2026-04-16 03:59 40.96762 28.92110 18036 ft 388 kts 188°
2026-04-16 04:00 40.94058 28.91757 18620 ft 392 kts 188°
2026-04-16 04:00 40.91335 28.91394 19160 ft 395 kts 188°
2026-04-16 04:00 40.88583 28.91029 19719 ft 399 kts 188°
2026-04-16 04:00 40.85787 28.90995 20272 ft 405 kts 179°
2026-04-16 04:01 40.82961 28.91221 20815 ft 408 kts 179°
2026-04-16 04:01 40.80114 28.91456 21337 ft 412 kts 179°
2026-04-16 04:01 40.77244 28.91697 21834 ft 415 kts 179°
2026-04-16 04:01 40.74354 28.91937 22319 ft 418 kts 179°
2026-04-16 04:02 40.71441 28.92179 22799 ft 421 kts 179°
2026-04-16 04:02 40.68509 28.92417 23263 ft 424 kts 179°
2026-04-16 04:02 40.65556 28.92652 23715 ft 427 kts 179°
2026-04-16 04:02 40.62577 28.92888 24094 ft 430 kts 179°
2026-04-16 04:03 40.59584 28.93133 24475 ft 433 kts 178°
2026-04-16 04:03 40.56595 28.93775 24852 ft 439 kts 168°
2026-04-16 04:03 40.53690 28.95086 25214 ft 445 kts 158°
2026-04-16 04:03 40.50970 28.97053 25567 ft 450 kts 149°
2026-04-16 04:04 40.48346 28.99321 25934 ft 452 kts 149°
2026-04-16 04:04 40.45706 29.01586 26286 ft 454 kts 149°
2026-04-16 04:04 40.43047 29.03850 26640 ft 457 kts 149°
2026-04-16 04:04 40.40374 29.06116 26992 ft 459 kts 149°
2026-04-16 04:05 40.37687 29.08394 27343 ft 461 kts 149°
2026-04-16 04:05 40.34987 29.10684 27692 ft 463 kts 149°
2026-04-16 04:05 40.32310 29.12957 28040 ft 466 kts 149°
2026-04-16 04:05 40.29548 29.15301 28394 ft 468 kts 149°
2026-04-16 04:06 40.26812 29.17622 28728 ft 470 kts 149°
2026-04-16 04:06 40.24062 29.19953 29057 ft 472 kts 149°
2026-04-16 04:06 40.21346 29.22249 29510 ft 471 kts 150°
2026-04-16 04:06 40.18535 29.24413 30000 ft 467 kts 156°
2026-04-16 04:07 40.15550 29.26037 30431 ft 463 kts 163°
2026-04-16 04:07 40.09508 29.28893 31054 ft 461 kts 163°
2026-04-16 04:07 40.06491 29.30326 31102 ft 462 kts 163°
2026-04-16 04:08 40.00456 29.33189 31103 ft 461 kts 163°
2026-04-16 04:08 39.94424 29.36048 31104 ft 461 kts 163°
2026-04-16 04:09 39.88403 29.38947 31105 ft 462 kts 161°
2026-04-16 04:09 39.82462 29.42191 31104 ft 463 kts 159°
2026-04-16 04:10 39.76571 29.45563 31098 ft 462 kts 159°
2026-04-16 04:10 39.70660 29.48866 31096 ft 462 kts 160°
2026-04-16 04:11 39.64724 29.52096 31097 ft 462 kts 160°
2026-04-16 04:11 39.58820 29.55169 31095 ft 462 kts 161°
2026-04-16 04:12 39.52819 29.58120 31094 ft 461 kts 162°
2026-04-16 04:12 39.46805 29.61053 31097 ft 461 kts 162°
2026-04-16 04:13 39.40806 29.64023 31098 ft 462 kts 161°
2026-04-16 04:13 39.34815 29.67015 31095 ft 461 kts 161°
2026-04-16 04:14 39.28819 29.69993 31092 ft 461 kts 162°
2026-04-16 04:14 39.22830 29.72960 31094 ft 461 kts 162°
2026-04-16 04:15 39.16834 29.75923 31095 ft 461 kts 162°
2026-04-16 04:15 39.10844 29.78874 31091 ft 461 kts 162°
2026-04-16 04:16 39.04859 29.81826 31096 ft 461 kts 162°
2026-04-16 04:16 38.98873 29.84777 31097 ft 460 kts 162°
2026-04-16 04:17 38.92916 29.87704 30805 ft 449 kts 162°
2026-04-16 04:17 38.90046 29.89112 30675 ft 435 kts 162°
2026-04-16 04:17 38.87283 29.90458 30360 ft 417 kts 162°
2026-04-16 04:18 38.84593 29.91746 29702 ft 408 kts 162°
2026-04-16 04:18 38.81948 29.92998 28963 ft 403 kts 162°
2026-04-16 04:18 38.79334 29.94229 28223 ft 398 kts 162°
2026-04-16 04:18 38.76749 29.95446 27513 ft 394 kts 162°
2026-04-16 04:19 38.74195 29.96651 26809 ft 389 kts 162°
2026-04-16 04:19 38.71666 29.97847 26121 ft 385 kts 162°
2026-04-16 04:19 38.69164 29.99033 25442 ft 381 kts 162°
2026-04-16 04:19 38.66680 30.00211 24866 ft 381 kts 162°
2026-04-16 04:20 38.64208 30.01382 24515 ft 378 kts 162°
2026-04-16 04:20 38.61760 30.02544 23963 ft 373 kts 162°
2026-04-16 04:20 38.59338 30.03692 23216 ft 369 kts 162°
2026-04-16 04:20 38.56974 30.04811 22524 ft 364 kts 162°
2026-04-16 04:21 38.54631 30.05917 22013 ft 354 kts 162°
2026-04-16 04:21 38.52355 30.06989 21559 ft 343 kts 162°
2026-04-16 04:21 38.50145 30.08027 21122 ft 334 kts 162°
2026-04-16 04:21 38.47994 30.09039 20706 ft 327 kts 162°
2026-04-16 04:22 38.45857 30.10044 20295 ft 328 kts 162°
2026-04-16 04:22 38.43707 30.11052 19885 ft 330 kts 162°
2026-04-16 04:22 38.41548 30.12066 19465 ft 331 kts 162°
2026-04-16 04:22 38.39377 30.13086 19052 ft 333 kts 162°
2026-04-16 04:23 38.37185 30.14068 18615 ft 334 kts 168°
2026-04-16 04:23 38.34898 30.14455 18147 ft 331 kts 184°
2026-04-16 04:23 38.32633 30.14054 17673 ft 327 kts 199°
2026-04-16 04:23 38.30557 30.12926 17194 ft 324 kts 212°
2026-04-16 04:24 38.28519 30.11678 16714 ft 328 kts 199°
2026-04-16 04:24 38.26283 30.11080 16348 ft 328 kts 193°
2026-04-16 04:24 38.24034 30.10555 15902 ft 328 kts 193°
2026-04-16 04:24 38.21795 30.10018 15279 ft 324 kts 194°
2026-04-16 04:25 38.19606 30.09482 14794 ft 316 kts 194°
2026-04-16 04:25 38.17475 30.08949 14324 ft 309 kts 194°
2026-04-16 04:25 38.15391 30.08418 13857 ft 303 kts 195°
2026-04-16 04:25 38.13342 30.07895 13361 ft 297 kts 194°
2026-04-16 04:26 38.11343 30.07385 12911 ft 290 kts 194°
2026-04-16 04:26 38.09388 30.06888 12474 ft 283 kts 194°
2026-04-16 04:26 38.07473 30.06401 12004 ft 279 kts 194°
2026-04-16 04:26 38.05587 30.05925 11565 ft 274 kts 193°
2026-04-16 04:27 38.03738 30.05459 11150 ft 268 kts 193°
2026-04-16 04:27 38.01921 30.04998 10733 ft 264 kts 193°
2026-04-16 04:27 38.00136 30.04543 10327 ft 260 kts 193°
2026-04-16 04:27 37.98375 30.04094 9915 ft 257 kts 193°
2026-04-16 04:28 37.96638 30.03646 9488 ft 252 kts 195°
2026-04-16 04:28 37.95035 30.02852 9092 ft 245 kts 212°
2026-04-16 04:28 37.93721 30.01581 8653 ft 240 kts 227°
2026-04-16 04:28 37.92695 29.99884 8009 ft 246 kts 238°
2026-04-16 04:29 37.91808 29.98012 7472 ft 248 kts 240°
2026-04-16 04:29 37.90957 29.96186 7122 ft 232 kts 239°
2026-04-16 04:29 37.90162 29.94506 6869 ft 213 kts 239°
2026-04-16 04:29 37.89417 29.92936 6571 ft 203 kts 239°
2026-04-16 04:30 37.88715 29.91457 6310 ft 189 kts 239°
2026-04-16 04:30 37.88073 29.90105 6078 ft 170 kts 239°
2026-04-16 04:30 37.87486 29.88869 5854 ft 161 kts 239°
2026-04-16 04:30 37.86915 29.87668 5646 ft 158 kts 239°
2026-04-16 04:31 37.86348 29.86476 5441 ft 157 kts 238°
2026-04-16 04:31 37.85786 29.85294 5231 ft 157 kts 238°
2026-04-16 04:31 37.85224 29.84112 5023 ft 157 kts 238°
2026-04-16 04:31 37.84664 29.82934 4825 ft 156 kts 238°
2026-04-16 04:32 37.84106 29.81762 4648 ft 155 kts 238°
2026-04-16 04:32 37.83545 29.80596 4469 ft 155 kts 238°
2026-04-16 04:32 37.82984 29.79438 4267 ft 154 kts 239°
2026-04-16 04:32 37.82425 29.78292 4048 ft 152 kts 238°
2026-04-16 04:33 37.81877 29.77163 3778 ft 149 kts 240°
2026-04-16 04:33 37.81357 29.76035 3554 ft 146 kts 240°
2026-04-16 04:33 37.80837 29.74920 3372 ft 147 kts 240°
2026-04-16 04:33 37.80316 29.73811 3169 ft 146 kts 239°
2026-04-16 04:34 37.79790 29.72718 2999 ft 145 kts 239°
2026-04-16 04:34 37.79271 29.71628 2830 ft 145 kts 239°
2026-04-16 04:34 37.78807 29.70645 2786 ft 99 kts 239°
2026-04-16 04:34 37.78609 29.70230 2787 ft 12 kts 239°
2026-04-16 04:35 37.78590 29.70192 2786 ft 9 kts 238°
2026-04-16 04:35 37.78540 29.70087 2786 ft 20 kts 238°
2026-04-16 04:35 37.78459 29.69916 2784 ft 27 kts 239°
2026-04-16 04:35 37.78334 29.69657 2795 ft 38 kts 239°
2026-04-16 04:36 37.78187 29.69348 2797 ft 43 kts 238°
2026-04-16 04:36 37.78042 29.69047 2799 ft 26 kts 238°
2026-04-16 04:36 37.77956 29.68865 2802 ft 22 kts 238°
2026-04-16 04:36 37.77863 29.68717 2800 ft 22 kts 200°
2026-04-16 04:37 37.77728 29.68789 2801 ft 21 kts 148°
2026-04-16 04:37 37.77604 29.68884 2799 ft 16 kts 149°
2026-04-16 04:37 37.77523 29.68945 2796 ft 12 kts 149°
2026-04-16 04:37 37.77493 29.68969 2795 ft 0 kts 148°